Flag for Monaco Weather past 2 weeks in Monaco, Monaco

Now
84 °F

Passing clouds.


Feels Like: 91 °F
Forecast: 73 / 88 °F
Wind: 6 mph from Southeast

Location: Nice Airport

Current Time: Jul 4, 2015 at 6:11:47 PM

Latest Report: Jul 4, 2015 at 5:30 PM


Visibility: N/A

Pressure: 30.12 "Hg

Humidity: 70%

Dew point: 73 °F

Location of MonacoLocation

Historic Weather in Monaco — Graph

°F

Monaco temperature yesterday

Maximum temperature yesterday: 84 °F (at 2:00 PM)
Minimum temperature yesterday: 75 °F (at 5:30 AM)
Average temperature yesterday: 80 °F

Past Weeks' High & Low Weather Summary

 TemperatureHumidityPressure
High88 °F (Jun 23, 6:00 PM)88% (Jun 20, 12:30 AM)30.24 "Hg (Jun 20, 12:30 AM)
Low66 °F (Jun 23, 6:30 AM)33% (Jun 23, 6:00 PM)29.65 "Hg (Jun 23, 2:00 PM)
Average76 °F65%30.03 "Hg
* Reported Jun 19 5:00 PM — Jul 4 5:00 PM, Monaco, Weather by CustomWeather, © 2015

Note: Actual official high and low records may vary slightly from our data, if they occured in-between our weather recording intervals... More about our weather records

Advertising

Monaco weather history for previous 24 hours

 ConditionsComfort  
Time TempWeatherWind HumidityBarometerVisibility
5:00 PM
Sat, Jul 4
82 °FPassing clouds.5 mph70%30.12 "HgN/A
4:30 PM82 °FPassing clouds.8 mph74%30.15 "HgN/A
4:05 PM82 °FPassing clouds.10 mph74%30.15 "HgN/A
3:30 PM84 °FPassing clouds.12 mph66%30.15 "HgN/A
3:00 PM84 °FPassing clouds.10 mph66%30.15 "HgN/A
2:30 PM86 °FPassing clouds.6 mph70%30.15 "HgN/A
2:00 PM84 °FSunny.5 mph70%30.15 "Hg10 mi
1:30 PM84 °FPassing clouds.3 mph74%30.15 "HgN/A
1:00 PM84 °FSunny.5 mph70%30.18 "Hg10 mi
12:30 PM84 °FSunny.7 mph70%30.18 "Hg10 mi
12:00 PM82 °FSunny.6 mph74%30.18 "Hg10 mi
11:30 AM82 °FSunny.7 mph74%30.18 "Hg10 mi
11:00 AM82 °FSunny.7 mph70%30.18 "Hg10 mi
10:30 AM84 °FSunny.7 mph66%30.18 "Hg10 mi
10:00 AM84 °FSunny.9 mph66%30.18 "Hg10 mi
9:30 AM82 °FSunny.5 mph70%30.18 "Hg10 mi
9:00 AM82 °FSunny.5 mph66%30.18 "Hg10 mi
8:30 AM84 °FSunny.2 mph55%30.18 "Hg10 mi
8:00 AM84 °FPassing clouds.5 mph48%30.18 "HgN/A
7:30 AM82 °FPassing clouds.9 mph51%30.18 "HgN/A
7:00 AM82 °FSunny.12 mph48%30.15 "Hg10 mi
6:30 AM81 °FClear.12 mph54%30.15 "Hg10 mi
6:00 AM82 °FClear.12 mph48%30.15 "Hg10 mi
5:30 AM82 °FClear.12 mph48%30.15 "Hg10 mi
5:00 AM82 °FClear.7 mph51%30.18 "Hg10 mi
4:00 AM81 °FClear.6 mph62%30.21 "Hg10 mi
3:30 AM84 °FClear.10 mph45%30.21 "Hg10 mi
3:00 AM84 °FClear.12 mph48%30.21 "Hg10 mi
2:30 AM81 °FClear.8 mph54%30.21 "Hg10 mi
2:00 AM79 °FClear.6 mph65%30.21 "Hg10 mi
1:30 AM77 °FClear.5 mph74%30.21 "Hg10 mi
1:00 AM79 °FPassing clouds.5 mph74%30.21 "HgN/A
12:30 AM79 °FClear.5 mph74%30.24 "Hg10 mi
12:00 AM81 °FPassing clouds.5 mph66%30.24 "HgN/A
11:30 PM
Fri, Jul 3
79 °FClear.3 mph79%30.24 "Hg10 mi
11:00 PM79 °FClear.2 mph84%30.24 "Hg10 mi
10:30 PM79 °FClear.2 mph84%30.24 "Hg10 mi
10:00 PM79 °FSunny.3 mph84%30.24 "Hg10 mi
9:30 PM79 °FSunny.6 mph84%30.21 "Hg10 mi
9:00 PM81 °FSunny.3 mph79%30.21 "Hg10 mi
8:30 PM81 °FSunny.5 mph74%30.21 "Hg10 mi
8:00 PM81 °FSunny.3 mph79%30.21 "Hg10 mi
7:30 PM81 °FSunny.2 mph79%30.21 "Hg10 mi
7:00 PM81 °FPassing clouds.3 mph79%30.18 "HgN/A
6:30 PM81 °FSunny.3 mph79%30.18 "Hg10 mi
6:00 PM82 °FPassing clouds.3 mph74%30.18 "HgN/A
Weather by CustomWeather, © 2015

See weather overviewHow to use our weather pages